Time,TemperatureF,DewpointF,PressureIn,WindDirection,WindDirectionDegrees,WindSpeedMPH,WindSpeedGustMPH,Humidity,HourlyPrecipIn,Conditions,Clouds,dailyrainin,SolarRadiationWatts/m^2,SoftwareType,DateUTC
2013-03-18 00:00:00,32.3,25.3,30.22,SE,143,4.0,4.0,75,0.00,,,0.00,0,Wunderground v.1.15,2013-03-18 04:00:00,
2013-03-18 00:02:00,32.3,25.6,30.22,ESE,111,4.0,4.0,76,0.00,,,0.00,0,Wunderground v.1.15,2013-03-18 04:02:00,
2013-03-18 00:03:00,32.3,25.6,30.22,ESE,109,4.0,4.0,76,0.00,,,0.00,0,Wunderground v.1.15,2013-03-18 04:03:00,
2013-03-18 00:05:00,32.3,25.3,30.22,ESE,123,4.0,4.0,75,0.00,,,0.00,0,Wunderground v.1.15,2013-03-18 04:05:00,
2013-03-18 00:11:00,32.3,24.9,30.22,East,98,3.0,3.0,74,0.00,,,0.00,0,Wunderground v.1.15,2013-03-18 04:11:00,
2013-03-18 00:17:00,32.3,24.9,30.22,ESE,114,3.0,6.0,74,0.00,,,0.00,0,Wunderground v.1.15,2013-03-18 04:17:00,
2013-03-18 00:22:00,32.3,24.9,30.22,ESE,119,4.0,4.0,74,0.00,,,0.00,0,Wunderground v.1.15,2013-03-18 04:22:00,
2013-03-18 00:27:00,32.3,25.3,30.22,ESE,115,2.0,4.0,75,0.00,,,0.00,0,Wunderground v.1.15,2013-03-18 04:27:00,
2013-03-18 00:32:00,32.3,24.9,30.22,ENE,72,2.0,5.0,74,0.00,,,0.00,0,Wunderground v.1.15,2013-03-18 04:32:00,
2013-03-18 00:38:00,32.3,24.9,30.22,ESE,110,4.0,9.0,74,0.00,,,0.00,0,Wunderground v.1.15,2013-03-18 04:38:00,
2013-03-18 00:44:00,32.3,24.9,30.22,ESE,105,3.0,4.0,74,0.00,,,0.00,0,Wunderground v.1.15,2013-03-18 04:44:00,
2013-03-18 00:49:00,32.2,24.5,30.22,ESE,121,5.0,8.0,73,0.00,,,0.00,0,Wunderground v.1.15,2013-03-18 04:49:00,
2013-03-18 00:55:00,32.2,25.2,30.22,SE,139,5.0,5.0,75,0.00,,,0.00,0,Wunderground v.1.15,2013-03-18 04:55:00,
2013-03-18 01:00:00,32.2,24.8,30.22,ESE,115,3.0,5.0,74,0.00,,,0.00,0,Wunderground v.1.15,2013-03-18 05:00:00,
2013-03-18 01:06:00,32.1,24.7,30.22,ENE,76,4.0,8.0,74,0.00,,,0.00,0,Wunderground v.1.15,2013-03-18 05:06:00,
2013-03-18 01:12:00,32.1,25.4,30.23,ESE,121,6.0,12.0,76,0.00,,,0.00,0,Wunderground v.1.15,2013-03-18 05:12:00,
2013-03-18 01:17:00,31.9,25.8,30.23,ESE,108,9.0,12.0,78,0.00,,,0.00,0,Wunderground v.1.15,2013-03-18 05:17:00,
2013-03-18 01:23:00,31.4,26.2,30.24,ESE,121,7.0,8.0,81,0.00,,,0.00,0,Wunderground v.1.15,2013-03-18 05:23:00,
2013-03-18 01:29:00,31.1,26.5,30.24,SSE,148,6.0,9.0,83,0.00,,,0.00,0,Wunderground v.1.15,2013-03-18 05:29:00,
2013-03-18 01:34:00,30.9,26.9,30.24,SSE,165,7.0,10.0,85,0.00,,,0.00,0,Wunderground v.1.15,2013-03-18 05:34:00,
2013-03-18 01:40:00,30.6,27.2,30.24,SSE,159,7.0,7.0,87,0.00,,,0.00,0,Wunderground v.1.15,2013-03-18 05:40:00,
2013-03-18 01:45:00,30.5,27.4,30.24,SSE,161,6.0,7.0,88,0.00,,,0.00,0,Wunderground v.1.15,2013-03-18 05:45:00,
2013-03-18 01:50:00,30.2,27.3,30.24,SE,136,5.0,5.0,89,0.00,,,0.00,0,Wunderground v.1.15,2013-03-18 05:50:00,
2013-03-18 01:57:00,30.0,28.0,30.24,South,176,5.0,8.0,92,0.00,,,0.00,0,Wunderground v.1.15,2013-03-18 05:57:00,
2013-03-18 02:03:00,29.8,27.8,30.24,South,185,5.0,5.0,92,0.00,,,0.00,0,Wunderground v.1.15,2013-03-18 06:03:00,
2013-03-18 02:08:00,29.7,27.9,30.24,SSE,150,3.0,5.0,93,0.00,,,0.01,0,Wunderground v.1.15,2013-03-18 06:08:00,
2013-03-18 02:13:00,29.6,27.8,30.24,SSE,150,1.0,2.0,93,0.00,,,0.01,0,Wunderground v.1.15,2013-03-18 06:13:00,
2013-03-18 02:19:00,29.6,28.3,30.24,SSE,150,0.0,2.0,95,0.00,,,0.01,0,Wunderground v.1.15,2013-03-18 06:19:00,
2013-03-18 02:25:00,29.4,28.1,30.24,SSE,153,0.0,0.0,95,0.04,,,0.02,0,Wunderground v.1.15,2013-03-18 06:25:00,
2013-03-18 02:30:00,29.3,28.3,30.24,SSE,152,0.0,0.0,96,0.04,,,0.02,0,Wunderground v.1.15,2013-03-18 06:30:00,
2013-03-18 02:37:00,29.0,28.0,30.24,East,81,1.0,2.0,96,0.04,,,0.02,0,Wunderground v.1.15,2013-03-18 06:37:00,
2013-03-18 02:43:00,28.9,28.2,30.24,East,80,1.0,1.0,97,0.00,,,0.03,0,Wunderground v.1.15,2013-03-18 06:43:00,
2013-03-18 02:49:00,28.9,28.2,30.24,East,80,0.0,1.0,97,0.00,,,0.03,0,Wunderground v.1.15,2013-03-18 06:49:00,
2013-03-18 02:55:00,29.0,28.5,30.24,East,82,0.0,0.0,98,0.00,,,0.03,0,Wunderground v.1.15,2013-03-18 06:55:00,
2013-03-18 03:00:00,29.0,28.5,30.23,ENE,64,0.0,1.0,98,0.00,,,0.04,0,Wunderground v.1.15,2013-03-18 07:00:00,
2013-03-18 03:06:00,28.9,28.2,30.23,East,86,1.0,3.0,97,0.00,,,0.04,0,Wunderground v.1.15,2013-03-18 07:06:00,
2013-03-18 03:12:00,28.9,28.4,30.24,SSE,164,1.0,3.0,98,0.00,,,0.04,0,Wunderground v.1.15,2013-03-18 07:12:00,
2013-03-18 03:18:00,28.8,28.3,30.24,NE,46,1.0,5.0,98,0.00,,,0.04,0,Wunderground v.1.15,2013-03-18 07:18:00,
2013-03-18 03:23:00,28.8,28.3,30.23,NNE,26,2.0,3.0,98,0.00,,,0.05,0,Wunderground v.1.15,2013-03-18 07:23:00,
2013-03-18 03:29:00,28.7,28.2,30.23,ENE,71,2.0,3.0,98,0.00,,,0.05,0,Wunderground v.1.15,2013-03-18 07:29:00,
2013-03-18 03:34:00,28.7,28.2,30.23,East,92,2.0,2.0,98,0.04,,,0.06,0,Wunderground v.1.15,2013-03-18 07:34:00,
2013-03-18 03:39:00,28.8,28.3,30.23,SE,127,1.0,2.0,98,0.04,,,0.06,0,Wunderground v.1.15,2013-03-18 07:39:00,
2013-03-18 03:45:00,28.8,28.3,30.23,East,89,1.0,1.0,98,0.04,,,0.06,0,Wunderground v.1.15,2013-03-18 07:45:00,
2013-03-18 03:51:00,28.6,28.1,30.23,ESE,103,1.0,2.0,98,0.00,,,0.06,0,Wunderground v.1.15,2013-03-18 07:51:00,
2013-03-18 03:56:00,28.5,28.0,30.22,East,100,2.0,3.0,98,0.00,,,0.07,0,Wunderground v.1.15,2013-03-18 07:56:00,
2013-03-18 04:01:00,28.5,28.0,30.22,East,100,1.0,1.0,98,0.00,,,0.07,0,Wunderground v.1.15,2013-03-18 08:01:00,
2013-03-18 04:06:00,28.5,28.0,30.23,East,101,0.0,2.0,98,0.04,,,0.08,0,Wunderground v.1.15,2013-03-18 08:06:00,
2013-03-18 04:12:00,28.5,28.3,30.23,NE,40,1.0,2.0,99,0.04,,,0.08,0,Wunderground v.1.15,2013-03-18 08:12:00,
2013-03-18 04:18:00,28.4,28.2,30.23,NNE,29,2.0,3.0,99,0.04,,,0.08,0,Wunderground v.1.15,2013-03-18 08:18:00,
2013-03-18 04:24:00,28.3,28.1,30.23,NE,39,2.0,3.0,99,0.04,,,0.09,0,Wunderground v.1.15,2013-03-18 08:24:00,
2013-03-18 04:29:00,28.2,28.0,30.22,NNE,27,2.0,4.0,99,0.04,,,0.09,0,Wunderground v.1.15,2013-03-18 08:29:00,
2013-03-18 04:35:00,28.1,27.9,30.23,NE,43,3.0,4.0,99,0.07,,,0.10,0,Wunderground v.1.15,2013-03-18 08:35:00,
2013-03-18 04:40:00,28.1,27.9,30.23,ENE,58,3.0,3.0,99,0.06,,,0.10,0,Wunderground v.1.15,2013-03-18 08:40:00,
2013-03-18 04:46:00,28.1,28.1,30.23,NE,55,2.0,3.0,100,0.05,,,0.11,0,Wunderground v.1.15,2013-03-18 08:46:00,
2013-03-18 04:52:00,28.0,28.0,30.23,NE,47,2.0,3.0,100,0.09,,,0.12,0,Wunderground v.1.15,2013-03-18 08:52:00,
2013-03-18 04:57:00,27.9,27.9,30.23,NE,50,3.0,5.0,100,0.07,,,0.12,0,Wunderground v.1.15,2013-03-18 08:57:00,
2013-03-18 05:03:00,27.8,27.8,30.23,NE,46,3.0,3.0,100,0.06,,,0.13,0,Wunderground v.1.15,2013-03-18 09:03:00,
2013-03-18 05:09:00,27.8,27.8,30.23,NE,50,3.0,3.0,100,0.07,,,0.14,0,Wunderground v.1.15,2013-03-18 09:09:00,
2013-03-18 05:14:00,27.7,27.7,30.23,ENE,57,3.0,8.0,100,0.07,,,0.14,0,Wunderground v.1.15,2013-03-18 09:14:00,
2013-03-18 05:20:00,27.7,27.7,30.23,NE,52,4.0,7.0,100,0.05,,,0.14,0,Wunderground v.1.15,2013-03-18 09:20:00,
2013-03-18 05:25:00,27.6,27.6,30.23,NE,51,5.0,7.0,100,0.05,,,0.15,0,Wunderground v.1.15,2013-03-18 09:25:00,
2013-03-18 05:30:00,27.6,27.6,30.23,NE,35,4.0,4.0,100,0.05,,,0.15,0,Wunderground v.1.15,2013-03-18 09:30:00,
2013-03-18 05:36:00,27.6,27.6,30.23,ENE,59,4.0,4.0,100,0.06,,,0.16,0,Wunderground v.1.15,2013-03-18 09:36:00,
2013-03-18 05:41:00,27.5,27.5,30.23,NE,55,4.0,5.0,100,0.06,,,0.16,0,Wunderground v.1.15,2013-03-18 09:41:00,
2013-03-18 05:47:00,27.5,27.5,30.23,NE,52,4.0,8.0,100,0.04,,,0.17,0,Wunderground v.1.15,2013-03-18 09:47:00,
2013-03-18 05:52:00,27.5,27.5,30.23,NE,45,4.0,4.0,100,0.10,,,0.18,0,Wunderground v.1.15,2013-03-18 09:52:00,
2013-03-18 05:58:00,27.5,27.5,30.24,NE,54,4.0,7.0,100,0.09,,,0.18,0,Wunderground v.1.15,2013-03-18 09:58:00,
2013-03-18 06:03:00,27.5,27.5,30.24,NE,41,5.0,8.0,100,0.07,,,0.19,0,Wunderground v.1.15,2013-03-18 10:03:00,
2013-03-18 06:09:00,27.4,27.4,30.24,NE,42,5.0,8.0,100,0.08,,,0.20,0,Wunderground v.1.15,2013-03-18 10:09:00,
2013-03-18 06:15:00,27.5,27.5,30.24,ENE,65,4.0,7.0,100,0.08,,,0.20,0,Wunderground v.1.15,2013-03-18 10:15:00,
2013-03-18 06:20:00,27.5,27.5,30.25,ENE,69,4.0,4.0,100,0.05,,,0.20,0,Wunderground v.1.15,2013-03-18 10:20:00,
2013-03-18 06:26:00,27.5,27.5,30.24,NE,51,4.0,6.0,100,0.04,,,0.21,0,Wunderground v.1.15,2013-03-18 10:26:00,
2013-03-18 06:31:00,27.4,27.4,30.24,ENE,78,5.0,5.0,100,0.04,,,0.21,0,Wunderground v.1.15,2013-03-18 10:31:00,
2013-03-18 06:37:00,27.4,27.4,30.24,ENE,62,5.0,10.0,100,0.07,,,0.22,0,Wunderground v.1.15,2013-03-18 10:37:00,
2013-03-18 06:43:00,27.4,27.4,30.24,ENE,65,5.0,5.0,100,0.05,,,0.22,0,Wunderground v.1.15,2013-03-18 10:43:00,
2013-03-18 06:49:00,27.4,27.4,30.24,ENE,65,5.0,9.0,100,0.04,,,0.23,0,Wunderground v.1.15,2013-03-18 10:49:00,
2013-03-18 06:55:00,27.3,27.3,30.24,ENE,61,6.0,10.0,100,0.04,,,0.23,0,Wunderground v.1.15,2013-03-18 10:55:00,
2013-03-18 07:00:00,27.3,27.3,30.24,East,81,7.0,7.0,100,0.06,,,0.24,0,Wunderground v.1.15,2013-03-18 11:00:00,
2013-03-18 07:06:00,27.3,27.3,30.24,ENE,64,6.0,9.0,100,0.06,,,0.24,0,Wunderground v.1.15,2013-03-18 11:06:00,
2013-03-18 07:11:00,27.3,27.3,30.24,East,92,6.0,11.0,100,0.04,,,0.25,0,Wunderground v.1.15,2013-03-18 11:11:00,
2013-03-18 07:17:00,27.4,27.4,30.24,ENE,74,7.0,11.0,100,0.04,,,0.25,0,Wunderground v.1.15,2013-03-18 11:17:00,
2013-03-18 07:22:00,27.4,27.4,30.24,ENE,76,6.0,9.0,100,0.04,,,0.25,0,Wunderground v.1.15,2013-03-18 11:22:00,
2013-03-18 07:28:00,27.4,27.4,30.23,East,83,6.0,9.0,100,0.00,,,0.25,0,Wunderground v.1.15,2013-03-18 11:28:00,
2013-03-18 07:34:00,27.5,27.5,30.24,ENE,65,4.0,5.0,100,0.00,,,0.26,0,Wunderground v.1.15,2013-03-18 11:34:00,
2013-03-18 07:40:00,27.5,27.5,30.24,ENE,76,5.0,5.0,100,0.00,,,0.26,0,Wunderground v.1.15,2013-03-18 11:40:00,
2013-03-18 07:45:00,27.5,27.5,30.23,ENE,71,6.0,10.0,100,0.00,,,0.26,0,Wunderground v.1.15,2013-03-18 11:45:00,
2013-03-18 07:51:00,27.5,27.5,30.23,East,96,6.0,6.0,100,0.00,,,0.26,0,Wunderground v.1.15,2013-03-18 11:51:00,
2013-03-18 07:56:00,27.5,27.5,30.23,ENE,76,6.0,8.0,100,0.00,,,0.27,0,Wunderground v.1.15,2013-03-18 11:56:00,
2013-03-18 08:01:00,27.5,27.5,30.23,East,100,6.0,6.0,100,0.00,,,0.27,0,Wunderground v.1.15,2013-03-18 12:01:00,
2013-03-18 08:07:00,27.5,27.5,30.23,East,88,5.0,8.0,100,0.00,,,0.27,5,Wunderground v.1.15,2013-03-18 12:07:00,
2013-03-18 08:12:00,27.4,27.4,30.23,ENE,72,5.0,7.0,100,0.00,,,0.27,5,Wunderground v.1.15,2013-03-18 12:12:00,
2013-03-18 08:17:00,27.4,27.4,30.23,SSE,159,6.0,7.0,100,0.00,,,0.27,5,Wunderground v.1.15,2013-03-18 12:17:00,
2013-03-18 08:22:00,27.3,27.3,30.22,ENE,63,6.0,7.0,100,0.00,,,0.27,7,Wunderground v.1.15,2013-03-18 12:22:00,
2013-03-18 08:28:00,27.3,27.3,30.22,SE,140,6.0,7.0,100,0.00,,,0.27,7,Wunderground v.1.15,2013-03-18 12:28:00,
2013-03-18 08:33:00,27.2,27.2,30.22,East,91,7.0,10.0,100,0.00,,,0.27,9,Wunderground v.1.15,2013-03-18 12:33:00,
2013-03-18 08:39:00,27.2,27.2,30.22,East,96,9.0,12.0,100,0.00,,,0.27,9,Wunderground v.1.15,2013-03-18 12:39:00,
2013-03-18 08:44:00,27.2,27.2,30.22,East,96,8.0,10.0,100,0.00,,,0.27,11,Wunderground v.1.15,2013-03-18 12:44:00,
2013-03-18 08:49:00,27.1,27.1,30.21,ENE,77,7.0,10.0,100,0.00,,,0.27,9,Wunderground v.1.15,2013-03-18 12:49:00,
2013-03-18 08:54:00,27.1,26.9,30.21,East,88,7.0,11.0,99,0.00,,,0.27,11,Wunderground v.1.15,2013-03-18 12:54:00,
2013-03-18 09:00:00,27.1,26.9,30.21,NE,39,6.0,6.0,99,0.00,,,0.27,11,Wunderground v.1.15,2013-03-18 13:00:00,
2013-03-18 09:06:00,27.1,26.9,30.21,SE,128,6.0,8.0,99,0.00,,,0.27,14,Wunderground v.1.15,2013-03-18 13:06:00,
2013-03-18 09:11:00,27.1,26.9,30.20,ENE,71,6.0,7.0,99,0.00,,,0.27,16,Wunderground v.1.15,2013-03-18 13:11:00,
2013-03-18 09:17:00,27.2,27.0,30.20,East,84,5.0,7.0,99,0.00,,,0.27,16,Wunderground v.1.15,2013-03-18 13:17:00,
2013-03-18 09:23:00,27.2,27.0,30.20,ENE,78,5.0,8.0,99,0.00,,,0.27,16,Wunderground v.1.15,2013-03-18 13:23:00,
2013-03-18 09:28:00,27.2,26.7,30.19,ENE,68,6.0,10.0,98,0.00,,,0.27,18,Wunderground v.1.15,2013-03-18 13:28:00,
2013-03-18 09:34:00,27.3,26.8,30.19,East,94,7.0,10.0,98,0.00,,,0.27,21,Wunderground v.1.15,2013-03-18 13:34:00,
2013-03-18 09:40:00,27.4,26.9,30.19,ENE,75,7.0,7.0,98,0.00,,,0.27,21,Wunderground v.1.15,2013-03-18 13:40:00,
2013-03-18 09:45:00,27.4,26.9,30.19,East,98,6.0,8.0,98,0.00,,,0.27,25,Wunderground v.1.15,2013-03-18 13:45:00,
2013-03-18 09:51:00,27.6,27.1,30.19,ESE,105,6.0,6.0,98,0.00,,,0.27,33,Wunderground v.1.15,2013-03-18 13:51:00,
2013-03-18 09:56:00,27.8,27.1,30.19,East,82,5.0,6.0,97,0.00,,,0.27,39,Wunderground v.1.15,2013-03-18 13:56:00,
2013-03-18 10:01:00,27.9,27.2,30.18,East,97,5.0,8.0,97,0.00,,,0.27,32,Wunderground v.1.15,2013-03-18 14:01:00,
2013-03-18 10:07:00,28.1,27.1,30.18,ENE,76,7.0,9.0,96,0.00,,,0.27,32,Wunderground v.1.15,2013-03-18 14:07:00,
2013-03-18 10:13:00,28.2,27.2,30.18,ESE,109,6.0,10.0,96,0.00,,,0.27,35,Wunderground v.1.15,2013-03-18 14:13:00,
2013-03-18 10:18:00,28.3,27.3,30.18,East,92,7.0,10.0,96,0.00,,,0.27,35,Wunderground v.1.15,2013-03-18 14:18:00,
2013-03-18 10:24:00,28.3,27.1,30.17,ENE,69,7.0,13.0,95,0.00,,,0.27,30,Wunderground v.1.15,2013-03-18 14:24:00,
2013-03-18 10:29:00,28.4,27.4,30.16,ESE,115,7.0,13.0,96,0.00,,,0.27,30,Wunderground v.1.15,2013-03-18 14:29:00,
2013-03-18 10:35:00,28.4,27.4,30.16,East,96,6.0,7.0,96,0.00,,,0.27,30,Wunderground v.1.15,2013-03-18 14:35:00,
2013-03-18 10:41:00,28.5,27.5,30.16,ESE,123,5.0,5.0,96,0.00,,,0.27,28,Wunderground v.1.15,2013-03-18 14:41:00,
2013-03-18 10:46:00,28.6,27.6,30.16,SE,135,4.0,7.0,96,0.00,,,0.27,28,Wunderground v.1.15,2013-03-18 14:46:00,
2013-03-18 10:52:00,28.6,27.4,30.17,ESE,113,5.0,10.0,95,0.00,,,0.27,23,Wunderground v.1.15,2013-03-18 14:52:00,
2013-03-18 10:57:00,28.6,27.4,30.17,ESE,111,6.0,10.0,95,0.00,,,0.27,25,Wunderground v.1.15,2013-03-18 14:57:00,
2013-03-18 11:03:00,28.7,27.4,30.16,SSE,148,4.0,7.0,95,0.00,,,0.27,25,Wunderground v.1.15,2013-03-18 15:03:00,
2013-03-18 11:09:00,28.7,27.4,30.16,East,96,5.0,8.0,95,0.00,,,0.27,18,Wunderground v.1.15,2013-03-18 15:09:00,
2013-03-18 11:15:00,28.5,27.3,30.16,East,99,8.0,13.0,95,0.00,,,0.27,16,Wunderground v.1.15,2013-03-18 15:15:00,
2013-03-18 11:21:00,28.5,27.3,30.17,ESE,116,8.0,9.0,95,0.00,,,0.27,25,Wunderground v.1.15,2013-03-18 15:21:00,
2013-03-18 11:27:00,28.6,27.6,30.17,ESE,111,6.0,9.0,96,0.00,,,0.27,23,Wunderground v.1.15,2013-03-18 15:27:00,
2013-03-18 11:32:00,28.6,27.6,30.16,ESE,117,6.0,9.0,96,0.00,,,0.27,25,Wunderground v.1.15,2013-03-18 15:32:00,
2013-03-18 11:37:00,28.7,27.7,30.17,SSE,151,6.0,9.0,96,0.00,,,0.27,23,Wunderground v.1.15,2013-03-18 15:37:00,
2013-03-18 11:43:00,28.7,27.7,30.16,East,86,4.0,5.0,96,0.00,,,0.27,25,Wunderground v.1.15,2013-03-18 15:43:00,
2013-03-18 11:49:00,28.7,27.7,30.15,ESE,119,4.0,7.0,96,0.00,,,0.27,30,Wunderground v.1.15,2013-03-18 15:49:00,
2013-03-18 11:54:00,28.8,27.8,30.15,ESE,122,4.0,8.0,96,0.00,,,0.27,26,Wunderground v.1.15,2013-03-18 15:54:00,
2013-03-18 12:00:00,28.8,27.8,30.15,East,98,5.0,5.0,96,0.00,,,0.27,28,Wunderground v.1.15,2013-03-18 16:00:00,
2013-03-18 12:07:00,28.9,27.9,30.15,East,84,4.0,7.0,96,0.00,,,0.27,33,Wunderground v.1.15,2013-03-18 16:07:00,
2013-03-18 12:13:00,28.9,27.9,30.15,East,101,4.0,7.0,96,0.00,,,0.27,30,Wunderground v.1.15,2013-03-18 16:13:00,
2013-03-18 12:19:00,29.0,28.0,30.14,East,97,3.0,10.0,96,0.00,,,0.27,30,Wunderground v.1.15,2013-03-18 16:19:00,
2013-03-18 12:24:00,29.0,28.0,30.15,East,101,4.0,8.0,96,0.00,,,0.27,23,Wunderground v.1.15,2013-03-18 16:24:00,
2013-03-18 12:30:00,28.9,28.2,30.15,ESE,111,6.0,7.0,97,0.00,,,0.28,23,Wunderground v.1.15,2013-03-18 16:30:00,
2013-03-18 12:35:00,28.8,28.1,30.14,East,101,6.0,9.0,97,0.00,,,0.28,23,Wunderground v.1.15,2013-03-18 16:35:00,
2013-03-18 12:40:00,28.7,28.0,30.14,SSE,153,6.0,6.0,97,0.00,,,0.28,28,Wunderground v.1.15,2013-03-18 16:40:00,
2013-03-18 12:46:00,28.7,28.2,30.14,ESE,113,5.0,6.0,98,0.00,,,0.28,32,Wunderground v.1.15,2013-03-18 16:46:00,
2013-03-18 12:51:00,28.6,28.1,30.14,East,88,4.0,8.0,98,0.00,,,0.29,28,Wunderground v.1.15,2013-03-18 16:51:00,
2013-03-18 12:57:00,28.5,28.0,30.13,East,91,5.0,8.0,98,0.00,,,0.29,26,Wunderground v.1.15,2013-03-18 16:57:00,
2013-03-18 13:03:00,28.3,27.8,30.14,ENE,64,6.0,7.0,98,0.06,,,0.30,25,Wunderground v.1.15,2013-03-18 17:03:00,
2013-03-18 13:09:00,28.1,27.9,30.11,East,95,7.0,13.0,99,0.06,,,0.30,39,Wunderground v.1.15,2013-03-18 17:09:00,
2013-03-18 13:14:00,28.0,27.8,30.09,East,85,8.0,8.0,99,0.06,,,0.31,62,Wunderground v.1.15,2013-03-18 17:14:00,
2013-03-18 13:20:00,27.9,27.7,30.10,ENE,69,6.0,6.0,99,0.10,,,0.32,47,Wunderground v.1.15,2013-03-18 17:20:00,
2013-03-18 13:25:00,27.8,27.8,30.11,ESE,115,5.0,7.0,100,0.07,,,0.33,35,Wunderground v.1.15,2013-03-18 17:25:00,
2013-03-18 13:31:00,27.8,27.8,30.10,ESE,105,4.0,4.0,100,0.11,,,0.34,53,Wunderground v.1.15,2013-03-18 17:31:00,
2013-03-18 13:37:00,27.9,27.9,30.10,SE,128,4.0,5.0,100,0.09,,,0.34,67,Wunderground v.1.15,2013-03-18 17:37:00,
2013-03-18 13:42:00,28.0,28.0,30.11,ENE,69,4.0,6.0,100,0.07,,,0.35,62,Wunderground v.1.15,2013-03-18 17:42:00,
2013-03-18 13:48:00,27.9,27.9,30.09,ESE,107,5.0,7.0,100,0.11,,,0.36,90,Wunderground v.1.15,2013-03-18 17:48:00,
2013-03-18 13:53:00,27.9,27.9,30.09,East,94,6.0,8.0,100,0.08,,,0.37,90,Wunderground v.1.15,2013-03-18 17:53:00,
2013-03-18 13:59:00,27.8,27.8,30.09,ESE,103,6.0,8.0,100,0.11,,,0.38,91,Wunderground v.1.15,2013-03-18 17:59:00,
2013-03-18 14:05:00,27.9,27.9,30.08,East,97,4.0,6.0,100,0.08,,,0.39,86,Wunderground v.1.15,2013-03-18 18:05:00,
2013-03-18 14:11:00,27.8,27.8,30.08,NE,53,4.0,5.0,100,0.10,,,0.40,86,Wunderground v.1.15,2013-03-18 18:11:00,
2013-03-18 14:16:00,27.8,27.8,30.07,ESE,103,5.0,7.0,100,0.10,,,0.40,84,Wunderground v.1.15,2013-03-18 18:16:00,
2013-03-18 14:21:00,27.8,27.8,30.07,ESE,111,4.0,6.0,100,0.08,,,0.41,88,Wunderground v.1.15,2013-03-18 18:21:00,
2013-03-18 14:27:00,27.8,27.8,30.06,ENE,76,4.0,9.0,100,0.09,,,0.42,76,Wunderground v.1.15,2013-03-18 18:27:00,
2013-03-18 14:33:00,27.8,27.8,30.06,SSE,149,3.0,4.0,100,0.08,,,0.43,62,Wunderground v.1.15,2013-03-18 18:33:00,
2013-03-18 14:39:00,27.8,27.8,30.05,ESE,113,4.0,9.0,100,0.10,,,0.44,88,Wunderground v.1.15,2013-03-18 18:39:00,
2013-03-18 14:44:00,27.8,27.8,30.06,ESE,116,4.0,4.0,100,0.10,,,0.44,84,Wunderground v.1.15,2013-03-18 18:44:00,
2013-03-18 14:50:00,27.9,27.9,30.06,ESE,113,3.0,3.0,100,0.08,,,0.45,84,Wunderground v.1.15,2013-03-18 18:50:00,
2013-03-18 14:56:00,28.0,28.0,30.06,East,98,3.0,7.0,100,0.09,,,0.46,65,Wunderground v.1.15,2013-03-18 18:56:00,
2013-03-18 15:01:00,28.1,28.1,30.05,East,82,4.0,4.0,100,0.07,,,0.46,70,Wunderground v.1.15,2013-03-18 19:01:00,
2013-03-18 15:07:00,28.2,28.2,30.05,ESE,110,5.0,10.0,100,0.07,,,0.47,74,Wunderground v.1.15,2013-03-18 19:07:00,
2013-03-18 15:12:00,28.3,28.3,30.04,East,101,7.0,7.0,100,0.10,,,0.48,74,Wunderground v.1.15,2013-03-18 19:12:00,
2013-03-18 15:18:00,28.4,28.4,30.04,SE,129,6.0,7.0,100,0.09,,,0.49,93,Wunderground v.1.15,2013-03-18 19:18:00,
2013-03-18 15:23:00,28.4,28.4,30.04,ENE,71,4.0,5.0,100,0.10,,,0.50,79,Wunderground v.1.15,2013-03-18 19:23:00,
2013-03-18 15:29:00,28.5,28.5,30.04,ENE,64,4.0,5.0,100,0.07,,,0.50,60,Wunderground v.1.15,2013-03-18 19:29:00,
2013-03-18 15:35:00,28.7,28.7,30.05,East,86,4.0,8.0,100,0.07,,,0.51,70,Wunderground v.1.15,2013-03-18 19:35:00,
2013-03-18 15:41:00,28.8,28.8,30.04,ENE,72,4.0,4.0,100,0.10,,,0.52,81,Wunderground v.1.15,2013-03-18 19:41:00,
2013-03-18 15:46:00,28.8,28.8,30.04,ENE,68,4.0,6.0,100,0.08,,,0.53,83,Wunderground v.1.15,2013-03-18 19:46:00,
2013-03-18 15:52:00,28.8,28.8,30.03,East,79,5.0,9.0,100,0.11,,,0.54,77,Wunderground v.1.15,2013-03-18 19:52:00,
2013-03-18 15:58:00,28.8,28.8,30.03,East,84,6.0,9.0,100,0.10,,,0.55,47,Wunderground v.1.15,2013-03-18 19:58:00,
2013-03-18 16:03:00,28.7,28.7,30.03,East,98,6.0,7.0,100,0.12,,,0.56,65,Wunderground v.1.15,2013-03-18 20:03:00,
2013-03-18 16:09:00,28.7,28.7,30.02,ENE,70,6.0,8.0,100,0.10,,,0.57,72,Wunderground v.1.15,2013-03-18 20:09:00,
2013-03-18 16:15:00,28.8,28.8,30.02,East,90,6.0,7.0,100,0.12,,,0.58,72,Wunderground v.1.15,2013-03-18 20:15:00,
2013-03-18 16:20:00,28.9,28.9,30.03,ENE,69,5.0,5.0,100,0.10,,,0.59,83,Wunderground v.1.15,2013-03-18 20:20:00,
2013-03-18 16:26:00,29.0,29.0,30.02,East,90,5.0,7.0,100,0.09,,,0.60,83,Wunderground v.1.15,2013-03-18 20:26:00,
2013-03-18 16:32:00,29.0,29.0,30.02,ESE,102,5.0,8.0,100,0.08,,,0.60,97,Wunderground v.1.15,2013-03-18 20:32:00,
2013-03-18 16:37:00,29.1,29.1,30.02,ESE,103,5.0,9.0,100,0.07,,,0.61,81,Wunderground v.1.15,2013-03-18 20:37:00,
2013-03-18 16:43:00,29.2,29.2,30.02,East,90,6.0,7.0,100,0.09,,,0.62,83,Wunderground v.1.15,2013-03-18 20:43:00,
2013-03-18 16:48:00,29.2,29.2,30.01,East,84,6.0,8.0,100,0.08,,,0.62,77,Wunderground v.1.15,2013-03-18 20:48:00,
2013-03-18 16:54:00,29.2,29.2,30.01,SE,129,7.0,7.0,100,0.07,,,0.63,69,Wunderground v.1.15,2013-03-18 20:54:00,
2013-03-18 16:59:00,29.2,29.2,30.00,ESE,108,7.0,9.0,100,0.09,,,0.64,70,Wunderground v.1.15,2013-03-18 20:59:00,
2013-03-18 17:04:00,29.2,29.2,30.00,East,94,7.0,7.0,100,0.06,,,0.64,74,Wunderground v.1.15,2013-03-18 21:04:00,
2013-03-18 17:10:00,29.2,29.2,29.99,East,88,6.0,6.0,100,0.06,,,0.65,69,Wunderground v.1.15,2013-03-18 21:10:00,
2013-03-18 17:15:00,29.2,29.2,29.98,ENE,63,6.0,7.0,100,0.10,,,0.66,72,Wunderground v.1.15,2013-03-18 21:15:00,
2013-03-18 17:21:00,29.2,29.2,29.99,ENE,76,5.0,7.0,100,0.06,,,0.66,63,Wunderground v.1.15,2013-03-18 21:21:00,
2013-03-18 17:26:00,29.2,29.2,29.98,ENE,69,5.0,7.0,100,0.05,,,0.67,47,Wunderground v.1.15,2013-03-18 21:26:00,
2013-03-18 17:32:00,29.2,29.2,29.98,ENE,78,7.0,9.0,100,0.05,,,0.67,37,Wunderground v.1.15,2013-03-18 21:32:00,
2013-03-18 17:38:00,29.0,29.0,29.97,ENE,78,9.0,10.0,100,0.06,,,0.68,37,Wunderground v.1.15,2013-03-18 21:38:00,
2013-03-18 17:44:00,29.0,29.0,29.96,East,80,10.0,10.0,100,0.06,,,0.68,42,Wunderground v.1.15,2013-03-18 21:44:00,
2013-03-18 17:49:00,29.0,29.0,29.96,East,90,10.0,12.0,100,0.04,,,0.68,60,Wunderground v.1.15,2013-03-18 21:49:00,
2013-03-18 17:55:00,29.0,29.0,29.96,ENE,66,9.0,12.0,100,0.04,,,0.69,56,Wunderground v.1.15,2013-03-18 21:55:00,
2013-03-18 18:00:00,29.0,29.0,29.95,ENE,57,8.0,8.0,100,0.04,,,0.69,51,Wunderground v.1.15,2013-03-18 22:00:00,
2013-03-18 18:06:00,29.1,29.1,29.95,ENE,69,7.0,8.0,100,0.05,,,0.70,53,Wunderground v.1.15,2013-03-18 22:06:00,
2013-03-18 18:11:00,29.1,29.1,29.95,ENE,64,8.0,12.0,100,0.05,,,0.70,49,Wunderground v.1.15,2013-03-18 22:11:00,
2013-03-18 18:17:00,29.1,29.1,29.94,ENE,70,9.0,14.0,100,0.05,,,0.70,49,Wunderground v.1.15,2013-03-18 22:17:00,
2013-03-18 18:22:00,29.1,29.1,29.93,ENE,71,9.0,11.0,100,0.00,,,0.71,40,Wunderground v.1.15,2013-03-18 22:22:00,
2013-03-18 18:28:00,29.1,29.1,29.94,ENE,73,9.0,11.0,100,0.00,,,0.71,23,Wunderground v.1.15,2013-03-18 22:28:00,
2013-03-18 18:34:00,29.1,29.1,29.94,NNE,32,8.0,9.0,100,0.05,,,0.72,25,Wunderground v.1.15,2013-03-18 22:34:00,
2013-03-18 18:40:00,29.2,29.2,29.94,ENE,65,8.0,8.0,100,0.05,,,0.72,21,Wunderground v.1.15,2013-03-18 22:40:00,
2013-03-18 18:45:00,29.2,29.2,29.94,ENE,67,8.0,9.0,100,0.05,,,0.72,18,Wunderground v.1.15,2013-03-18 22:45:00,
2013-03-18 18:51:00,29.2,29.2,29.94,ENE,63,9.0,9.0,100,0.04,,,0.73,16,Wunderground v.1.15,2013-03-18 22:51:00,
2013-03-18 18:57:00,29.3,29.3,29.94,NE,53,9.0,12.0,100,0.04,,,0.73,14,Wunderground v.1.15,2013-03-18 22:57:00,
2013-03-18 19:02:00,29.4,29.4,29.95,NE,44,6.0,7.0,100,0.04,,,0.73,11,Wunderground v.1.15,2013-03-18 23:02:00,
2013-03-18 19:07:00,29.4,29.4,29.95,NNE,16,5.0,7.0,100,0.04,,,0.74,7,Wunderground v.1.15,2013-03-18 23:07:00,
2013-03-18 19:13:00,29.4,29.4,29.95,NNE,22,5.0,6.0,100,0.04,,,0.74,5,Wunderground v.1.15,2013-03-18 23:13:00,
2013-03-18 19:18:00,29.4,29.4,29.94,NE,51,4.0,6.0,100,0.04,,,0.74,0,Wunderground v.1.15,2013-03-18 23:18:00,
2013-03-18 19:23:00,29.4,29.4,29.94,NE,47,4.0,5.0,100,0.00,,,0.74,0,Wunderground v.1.15,2013-03-18 23:23:00,
2013-03-18 19:29:00,29.4,29.4,29.94,NE,42,4.0,7.0,100,0.00,,,0.75,0,Wunderground v.1.15,2013-03-18 23:29:00,
2013-03-18 19:35:00,29.4,29.4,29.94,North,5,5.0,7.0,100,0.00,,,0.75,0,Wunderground v.1.15,2013-03-18 23:35:00,
2013-03-18 19:42:00,29.4,29.4,29.94,NNE,28,4.0,8.0,100,0.04,,,0.76,0,Wunderground v.1.15,2013-03-18 23:42:00,
2013-03-18 19:48:00,29.5,29.5,29.94,NE,40,5.0,8.0,100,0.04,,,0.76,0,Wunderground v.1.15,2013-03-18 23:48:00,
2013-03-18 19:54:00,29.5,29.5,29.94,NE,41,4.0,6.0,100,0.04,,,0.76,0,Wunderground v.1.15,2013-03-18 23:54:00,
2013-03-18 20:00:00,29.5,29.5,29.94,NE,53,4.0,4.0,100,0.00,,,0.76,0,Wunderground v.1.15,2013-03-19 00:00:00,
2013-03-18 20:06:00,29.5,29.5,29.94,NE,40,4.0,6.0,100,0.00,,,0.76,0,Wunderground v.1.15,2013-03-19 00:06:00,
2013-03-18 20:12:00,29.6,29.6,29.94,NNE,31,3.0,4.0,100,0.00,,,0.77,0,Wunderground v.1.15,2013-03-19 00:12:00,
2013-03-18 20:18:00,29.7,29.7,29.93,NE,46,3.0,7.0,100,0.00,,,0.77,0,Wunderground v.1.15,2013-03-19 00:18:00,
2013-03-18 20:24:00,29.7,29.7,29.93,ENE,65,4.0,7.0,100,0.00,,,0.77,0,Wunderground v.1.15,2013-03-19 00:24:00,
2013-03-18 20:29:00,29.8,29.8,29.93,NNE,27,3.0,7.0,100,0.00,,,0.77,0,Wunderground v.1.15,2013-03-19 00:29:00,
2013-03-18 20:35:00,29.9,29.9,29.93,NE,46,3.0,4.0,100,0.00,,,0.78,0,Wunderground v.1.15,2013-03-19 00:35:00,
2013-03-18 20:42:00,29.9,29.9,29.93,NE,42,3.0,4.0,100,0.00,,,0.78,0,Wunderground v.1.15,2013-03-19 00:42:00,
2013-03-18 20:48:00,30.0,30.0,29.93,NNE,13,3.0,7.0,100,0.00,,,0.78,0,Wunderground v.1.15,2013-03-19 00:48:00,
2013-03-18 20:53:00,30.1,30.1,29.93,NE,52,4.0,5.0,100,0.00,,,0.78,0,Wunderground v.1.15,2013-03-19 00:53:00,
2013-03-18 20:59:00,30.1,29.9,29.92,NE,36,4.0,5.0,99,0.00,,,0.78,0,Wunderground v.1.15,2013-03-19 00:59:00,
2013-03-18 21:04:00,30.2,30.0,29.92,NE,48,3.0,5.0,99,0.00,,,0.78,0,Wunderground v.1.15,2013-03-19 01:04:00,
2013-03-18 21:09:00,30.2,30.0,29.91,ENE,62,2.0,5.0,99,0.00,,,0.78,0,Wunderground v.1.15,2013-03-19 01:09:00,
2013-03-18 21:15:00,30.2,30.0,29.92,NNE,32,3.0,6.0,99,0.00,,,0.78,0,Wunderground v.1.15,2013-03-19 01:15:00,
2013-03-18 21:20:00,30.2,30.0,29.92,NE,49,3.0,5.0,99,0.00,,,0.78,0,Wunderground v.1.15,2013-03-19 01:20:00,
2013-03-18 21:26:00,30.3,30.1,29.92,NNE,30,2.0,5.0,99,0.00,,,0.79,0,Wunderground v.1.15,2013-03-19 01:26:00,
2013-03-18 21:32:00,30.4,30.2,29.92,NNE,32,2.0,3.0,99,0.00,,,0.79,0,Wunderground v.1.15,2013-03-19 01:32:00,
2013-03-18 21:38:00,30.5,30.3,29.92,ENE,62,2.0,3.0,99,0.00,,,0.79,0,Wunderground v.1.15,2013-03-19 01:38:00,
2013-03-18 21:44:00,30.5,30.0,29.91,NE,46,2.0,4.0,98,0.00,,,0.79,0,Wunderground v.1.15,2013-03-19 01:44:00,
2013-03-18 21:49:00,30.5,30.0,29.91,ENE,61,2.0,4.0,98,0.00,,,0.79,0,Wunderground v.1.15,2013-03-19 01:49:00,
2013-03-18 21:55:00,30.6,30.1,29.91,ENE,62,1.0,5.0,98,0.00,,,0.79,0,Wunderground v.1.15,2013-03-19 01:55:00,
2013-03-18 22:00:00,30.6,30.1,29.90,NNE,21,2.0,3.0,98,0.00,,,0.79,0,Wunderground v.1.15,2013-03-19 02:00:00,
2013-03-18 22:06:00,30.6,30.1,29.90,NNE,22,2.0,3.0,98,0.00,,,0.79,0,Wunderground v.1.15,2013-03-19 02:06:00,
2013-03-18 22:11:00,30.6,30.1,29.90,NNE,26,2.0,2.0,98,0.00,,,0.79,0,Wunderground v.1.15,2013-03-19 02:11:00,
2013-03-18 22:17:00,30.6,30.1,29.90,NNE,22,1.0,3.0,98,0.00,,,0.79,0,Wunderground v.1.15,2013-03-19 02:17:00,
2013-03-18 22:23:00,30.6,30.1,29.90,NE,37,2.0,4.0,98,0.00,,,0.79,0,Wunderground v.1.15,2013-03-19 02:23:00,
2013-03-18 22:29:00,30.6,30.1,29.89,NNE,31,3.0,4.0,98,0.00,,,0.79,0,Wunderground v.1.15,2013-03-19 02:29:00,
2013-03-18 22:34:00,30.6,30.1,29.90,NNE,30,2.0,3.0,98,0.00,,,0.79,0,Wunderground v.1.15,2013-03-19 02:34:00,
2013-03-18 22:40:00,30.6,30.1,29.90,NE,36,1.0,2.0,98,0.00,,,0.79,0,Wunderground v.1.15,2013-03-19 02:40:00,
2013-03-18 22:46:00,30.6,30.1,29.90,NE,34,2.0,3.0,98,0.00,,,0.79,0,Wunderground v.1.15,2013-03-19 02:46:00,
2013-03-18 22:51:00,30.7,30.2,29.89,NE,38,2.0,2.0,98,0.00,,,0.79,0,Wunderground v.1.15,2013-03-19 02:51:00,
2013-03-18 22:57:00,30.7,30.2,29.89,NE,36,2.0,4.0,98,0.00,,,0.79,0,Wunderground v.1.15,2013-03-19 02:57:00,
2013-03-18 23:03:00,30.7,30.2,29.89,NNE,30,2.0,3.0,98,0.00,,,0.79,0,Wunderground v.1.15,2013-03-19 03:03:00,
2013-03-18 23:08:00,30.7,30.2,29.89,NNE,31,2.0,3.0,98,0.00,,,0.79,0,Wunderground v.1.15,2013-03-19 03:08:00,
2013-03-18 23:14:00,30.7,30.0,29.89,NNE,30,1.0,2.0,97,0.00,,,0.79,0,Wunderground v.1.15,2013-03-19 03:14:00,
2013-03-18 23:20:00,30.7,30.2,29.89,NNE,31,1.0,1.0,98,0.00,,,0.79,0,Wunderground v.1.15,2013-03-19 03:20:00,
2013-03-18 23:26:00,30.6,30.1,29.88,NNE,28,2.0,4.0,98,0.00,,,0.79,0,Wunderground v.1.15,2013-03-19 03:26:00,
2013-03-18 23:31:00,30.6,30.1,29.88,NNE,23,2.0,2.0,98,0.00,,,0.79,0,Wunderground v.1.15,2013-03-19 03:31:00,
2013-03-18 23:37:00,30.7,30.2,29.88,NNE,24,1.0,3.0,98,0.00,,,0.79,0,Wunderground v.1.15,2013-03-19 03:37:00,
2013-03-18 23:42:00,30.8,30.3,29.88,NNE,26,1.0,3.0,98,0.00,,,0.79,0,Wunderground v.1.15,2013-03-19 03:42:00,
2013-03-18 23:48:00,30.8,30.0,29.87,NNE,27,1.0,3.0,97,0.00,,,0.79,0,Wunderground v.1.15,2013-03-19 03:48:00,
2013-03-18 23:54:00,30.8,30.0,29.87,NNE,28,1.0,1.0,97,0.00,,,0.79,0,Wunderground v.1.15,2013-03-19 03:54:00,